Flag for Norway Weather past 2 weeks in Namsos, Norway

Now
34 °F

Sunny.


Feels Like: 27 °F
Forecast: 30 / 40 °F
Wind: 8 mph from Northeast

Location: Namsos Lufthavn

Current Time: Mar 3, 2015 at 12:37:44 PM

Latest Report: Mar 3, 2015 at 10:50 AM


Visibility: 10 mi

Pressure: 29.45 "Hg

Humidity: 87%

Dew point: 30 °F

Location of NamsosLocation

Historic Weather in Namsos — Graph

°F

Namsos temperature yesterday

Maximum temperature yesterday: 41 °F (at 2:20 PM)
Minimum temperature yesterday: 34 °F (at 10:20 PM)
Average temperature yesterday: 38 °F

Past Weeks' High & Low Weather Summary

 TemperatureHumidityPressure
High46 °F (Feb 19, 8:50 AM)100% (Feb 18, 3:20 PM)30.04 "Hg (Feb 18, 3:20 PM)
Low28 °F (Feb 21, 6:50 AM)42% (Feb 27, 7:50 PM)28.77 "Hg (Mar 1, 5:50 PM)
Average38 °F72%29.37 "Hg
* Reported Feb 16 10:20 AM — Mar 3 10:50 AM, Namsos, Weather by CustomWeather, © 2015

Note: Actual official high and low records may vary slightly from our data, if they occured in-between our weather recording intervals... More about our weather records

Advertising

Namsos weather history for previous 24 hours

 ConditionsComfort  
Time TempWeatherWind HumidityBarometerVisibility
10:50 AM
Tue, Mar 3
34 °FSunny.8 mph87%29.45 "Hg10 mi
9:50 AM32 °FSunny.5 mph93%29.42 "Hg10 mi
8:20 AM30 °FScattered clouds.1 mph93%29.42 "HgN/A
7:20 AM30 °FScattered clouds.5 mph93%29.42 "HgN/A
6:50 AM30 °FPassing clouds.6 mph93%29.39 "HgN/A
6:20 AM30 °FPassing clouds.9 mph93%29.39 "HgN/A
5:50 AM30 °FPassing clouds.9 mph93%29.39 "HgN/A
10:50 PM
Mon, Mar 2
34 °FLight rain. Fog.6 mph93%29.27 "Hg3 mi
10:20 PM34 °FSprinkles. Fog.7 mph93%29.27 "HgN/A
9:50 PM36 °FSprinkles. Fog.7 mph87%29.24 "HgN/A
9:20 PM36 °FSprinkles. Passing clouds.7 mph87%29.21 "HgN/A
8:50 PM37 °FScattered showers. Passing clouds.6 mph81%29.21 "HgN/A
8:20 PM37 °FPassing clouds.6 mph81%29.18 "HgN/A
7:50 PM37 °FPassing clouds.7 mph87%29.18 "HgN/A
7:20 PM36 °FSprinkles. Partly cloudy.7 mph93%29.18 "HgN/A
6:50 PM37 °FPartly cloudy.10 mph87%29.15 "HgN/A
6:20 PM37 °FPartly cloudy.8 mph87%29.12 "HgN/A
5:50 PM39 °FSprinkles. Partly cloudy.10 mph81%29.12 "HgN/A
5:20 PM39 °FBroken clouds.13 mph81%29.09 "HgN/A
4:50 PM41 °FBroken clouds.13 mph76%29.06 "HgN/A
4:20 PM39 °FBroken clouds.8 mph81%29.06 "HgN/A
3:50 PM41 °FBroken clouds.7 mph76%29.03 "HgN/A
3:20 PM39 °FBroken clouds.12 mph81%29.03 "HgN/A
2:50 PM39 °FSunny.12 mph81%29.00 "Hg10 mi
2:20 PM41 °FSunny.12 mph76%29.00 "Hg10 mi
1:50 PM39 °FSunny.13 mph81%29.00 "Hg10 mi
1:20 PM39 °FSunny.14 mph81%29.00 "Hg10 mi
12:50 PM39 °FScattered clouds.14 mph81%28.97 "HgN/A
12:20 PM39 °FScattered clouds.15 mph81%28.97 "HgN/A
Weather by CustomWeather, © 2015

See weather overviewHow to use our weather pages